Time,TemperatureF,DewpointF,PressureIn,WindDirection,WindDirectionDegrees,WindSpeedMPH,WindSpeedGustMPH,Humidity,HourlyPrecipIn,Conditions,Clouds,dailyrainin,SoftwareType,DateUTC
2013-01-14 00:02:00,41.8,41.8,29.88,South,180,0.0,0.0,100,0.00,,,0.00,VWS V14.00,2013-01-14 05:02:00,
2013-01-14 00:05:00,41.8,41.8,29.88,South,180,0.0,0.0,100,0.00,,,0.00,VWS V14.00,2013-01-14 05:05:00,
2013-01-14 00:08:00,41.6,41.6,29.88,South,180,0.0,0.0,100,0.00,,,0.00,VWS V14.00,2013-01-14 05:08:00,
2013-01-14 00:14:00,41.3,41.3,29.87,South,180,0.0,0.0,100,0.00,,,0.00,VWS V14.00,2013-01-14 05:14:00,
2013-01-14 00:20:00,41.3,41.3,29.88,South,180,0.0,0.0,100,0.00,,,0.00,VWS V14.00,2013-01-14 05:20:00,
2013-01-14 00:26:00,41.3,41.3,29.87,South,180,0.0,0.0,100,0.00,,,0.00,VWS V14.00,2013-01-14 05:26:00,
2013-01-14 00:32:00,41.2,41.2,29.87,South,180,0.0,0.0,100,0.00,,,0.00,VWS V14.00,2013-01-14 05:32:00,
2013-01-14 00:38:00,41.2,41.2,29.87,South,180,0.0,0.0,100,0.00,,,0.00,VWS V14.00,2013-01-14 05:38:00,
2013-01-14 00:44:00,41.6,41.6,29.87,South,180,0.0,0.0,100,0.00,,,0.00,VWS V14.00,2013-01-14 05:44:00,
2013-01-14 00:50:00,41.7,41.7,29.86,South,180,0.0,0.0,100,0.00,,,0.00,VWS V14.00,2013-01-14 05:50:00,
2013-01-14 00:56:00,41.8,41.8,29.86,South,180,0.0,0.0,100,0.00,,,0.00,VWS V14.00,2013-01-14 05:56:00,
2013-01-14 01:02:00,42.0,42.0,29.86,South,180,0.0,0.0,100,0.00,,,0.00,VWS V14.00,2013-01-14 06:02:00,
2013-01-14 01:08:00,42.0,42.0,29.86,South,180,0.0,0.0,100,0.00,,,0.00,VWS V14.00,2013-01-14 06:08:00,
2013-01-14 01:14:00,42.2,42.2,29.86,South,180,0.0,0.0,100,0.00,,,0.00,VWS V14.00,2013-01-14 06:14:00,
2013-01-14 01:20:00,42.5,42.5,29.86,South,180,0.0,0.0,100,0.00,,,0.00,VWS V14.00,2013-01-14 06:20:00,
2013-01-14 01:26:00,42.6,42.6,29.85,South,180,0.0,0.0,100,0.00,,,0.00,VWS V14.00,2013-01-14 06:26:00,
2013-01-14 01:32:00,42.9,42.9,29.86,South,180,0.0,0.0,100,0.00,,,0.00,VWS V14.00,2013-01-14 06:32:00,
2013-01-14 01:38:00,43.1,43.1,29.85,South,180,0.0,0.0,100,0.00,,,0.00,VWS V14.00,2013-01-14 06:38:00,
2013-01-14 01:44:00,43.0,43.0,29.85,South,180,0.0,0.0,100,0.00,,,0.00,VWS V14.00,2013-01-14 06:44:00,
2013-01-14 01:50:00,43.0,43.0,29.86,South,180,0.0,0.0,100,0.00,,,0.00,VWS V14.00,2013-01-14 06:50:00,
2013-01-14 01:56:00,43.0,43.0,29.86,South,180,0.0,0.0,100,0.00,,,0.00,VWS V14.00,2013-01-14 06:56:00,
2013-01-14 02:02:00,42.6,42.6,29.87,South,180,0.0,0.0,100,0.00,,,0.00,VWS V14.00,2013-01-14 07:02:00,
2013-01-14 02:08:00,42.6,42.6,29.85,South,180,0.0,0.0,100,0.00,,,0.00,VWS V14.00,2013-01-14 07:08:00,
2013-01-14 02:14:00,42.7,42.7,29.85,South,180,0.0,0.0,100,0.00,,,0.00,VWS V14.00,2013-01-14 07:14:00,
2013-01-14 02:20:00,42.8,42.8,29.84,South,180,0.0,0.0,100,0.00,,,0.00,VWS V14.00,2013-01-14 07:20:00,
2013-01-14 02:26:00,42.3,42.3,29.83,South,180,0.0,0.0,100,0.00,,,0.00,VWS V14.00,2013-01-14 07:26:00,
2013-01-14 02:32:00,41.8,41.8,29.84,South,180,0.0,0.0,100,0.00,,,0.00,VWS V14.00,2013-01-14 07:32:00,
2013-01-14 02:38:00,41.9,41.9,29.83,South,180,0.0,0.0,100,0.00,,,0.00,VWS V14.00,2013-01-14 07:38:00,
2013-01-14 02:44:00,42.0,42.0,29.83,South,180,0.0,0.0,100,0.00,,,0.00,VWS V14.00,2013-01-14 07:44:00,
2013-01-14 02:51:00,42.0,42.0,29.82,South,180,0.0,0.0,100,0.00,,,0.00,VWS V14.00,2013-01-14 07:51:00,
2013-01-14 02:57:00,42.0,42.0,29.82,South,180,0.0,0.0,100,0.00,,,0.00,VWS V14.00,2013-01-14 07:57:00,
2013-01-14 03:03:00,42.5,42.5,29.82,South,180,0.0,0.0,100,0.00,,,0.00,VWS V14.00,2013-01-14 08:03:00,
2013-01-14 03:09:00,43.1,43.1,29.80,South,180,0.0,0.0,100,0.00,,,0.00,VWS V14.00,2013-01-14 08:09:00,
2013-01-14 03:15:00,43.3,43.3,29.79,ESE,107,5.1,9.9,100,0.00,,,0.00,VWS V14.00,2013-01-14 08:15:00,
2013-01-14 03:21:00,44.5,44.5,29.79,SSE,155,0.0,9.9,100,0.00,,,0.00,VWS V14.00,2013-01-14 08:21:00,
2013-01-14 03:27:00,44.5,44.5,29.80,NW,309,0.0,9.9,100,0.00,,,0.00,VWS V14.00,2013-01-14 08:27:00,
2013-01-14 03:33:00,43.5,43.5,29.79,South,169,0.0,9.9,100,0.00,,,0.00,VWS V14.00,2013-01-14 08:33:00,
2013-01-14 03:39:00,42.8,42.8,29.78,South,169,0.0,9.9,100,0.00,,,0.00,VWS V14.00,2013-01-14 08:39:00,
2013-01-14 03:45:00,42.8,42.8,29.77,SSE,155,0.0,9.9,100,0.00,,,0.00,VWS V14.00,2013-01-14 08:45:00,
2013-01-14 03:51:00,43.2,43.2,29.77,NNE,14,2.2,9.9,100,0.00,,,0.00,VWS V14.00,2013-01-14 08:51:00,
2013-01-14 03:57:00,43.4,43.4,29.77,NW,305,0.0,9.9,100,0.00,,,0.00,VWS V14.00,2013-01-14 08:57:00,
2013-01-14 04:03:00,43.6,43.6,29.78,NW,305,0.0,9.9,100,0.00,,,0.00,VWS V14.00,2013-01-14 09:03:00,
2013-01-14 04:09:00,43.6,43.6,29.78,WNW,291,0.0,9.9,100,0.00,,,0.00,VWS V14.00,2013-01-14 09:09:00,
2013-01-14 04:15:00,43.8,43.8,29.78,WNW,291,0.0,9.9,100,0.00,,,0.00,VWS V14.00,2013-01-14 09:15:00,
2013-01-14 04:21:00,43.8,43.8,29.77,WNW,291,0.0,9.9,100,0.00,,,0.00,VWS V14.00,2013-01-14 09:21:00,
2013-01-14 04:27:00,43.6,43.6,29.77,SSW,208,0.0,9.9,100,0.00,,,0.00,VWS V14.00,2013-01-14 09:27:00,
2013-01-14 04:33:00,43.8,43.8,29.76,SSW,208,0.0,9.9,100,0.00,,,0.00,VWS V14.00,2013-01-14 09:33:00,
2013-01-14 04:39:00,43.8,43.8,29.77,SSW,208,0.0,9.9,100,0.00,,,0.00,VWS V14.00,2013-01-14 09:39:00,
2013-01-14 04:45:00,43.9,43.9,29.78,SSW,208,0.0,9.9,100,0.00,,,0.00,VWS V14.00,2013-01-14 09:45:00,
2013-01-14 04:51:00,43.8,43.8,29.79,SSW,208,0.0,9.9,100,0.00,,,0.00,VWS V14.00,2013-01-14 09:51:00,
2013-01-14 04:57:00,43.9,43.9,29.79,SSW,208,0.0,9.9,100,0.00,,,0.00,VWS V14.00,2013-01-14 09:57:00,
2013-01-14 05:03:00,43.7,43.7,29.79,SSW,208,0.0,9.9,100,0.00,,,0.00,VWS V14.00,2013-01-14 10:03:00,
2013-01-14 05:09:00,43.4,43.4,29.78,SSW,208,0.0,9.9,100,0.00,,,0.00,VWS V14.00,2013-01-14 10:09:00,
2013-01-14 05:15:00,43.1,43.1,29.79,SSW,208,0.0,9.9,100,0.00,,,0.00,VWS V14.00,2013-01-14 10:15:00,
2013-01-14 05:21:00,43.0,43.0,29.79,SSW,208,0.0,9.9,100,0.00,,,0.00,VWS V14.00,2013-01-14 10:21:00,
2013-01-14 05:27:00,42.8,42.8,29.79,SSW,208,0.0,9.9,100,0.00,,,0.00,VWS V14.00,2013-01-14 10:27:00,
2013-01-14 05:33:00,42.6,42.6,29.81,SSW,208,0.0,9.9,100,0.00,,,0.00,VWS V14.00,2013-01-14 10:33:00,
2013-01-14 05:39:00,42.7,42.7,29.82,SSW,208,0.0,9.9,100,0.00,,,0.00,VWS V14.00,2013-01-14 10:39:00,
2013-01-14 05:45:00,43.0,43.0,29.82,SSW,208,0.0,9.9,100,0.00,,,0.00,VWS V14.00,2013-01-14 10:45:00,
2013-01-14 05:51:00,43.1,43.1,29.82,SSW,208,0.0,9.9,100,0.00,,,0.00,VWS V14.00,2013-01-14 10:51:00,
2013-01-14 05:58:00,42.7,42.7,29.83,SSW,208,0.0,9.9,100,0.00,,,0.00,VWS V14.00,2013-01-14 10:58:00,
2013-01-14 06:04:00,42.5,42.5,29.82,SSW,208,0.0,9.9,100,0.00,,,0.00,VWS V14.00,2013-01-14 11:04:00,
2013-01-14 06:10:00,42.8,42.8,29.83,SSW,208,0.0,9.9,100,0.00,,,0.00,VWS V14.00,2013-01-14 11:10:00,
2013-01-14 06:16:00,43.5,43.5,29.84,SSW,208,0.0,9.9,100,0.00,,,0.00,VWS V14.00,2013-01-14 11:16:00,
2013-01-14 06:22:00,43.8,43.8,29.83,SSW,208,0.0,9.9,100,0.00,,,0.00,VWS V14.00,2013-01-14 11:22:00,
2013-01-14 06:28:00,43.9,43.9,29.83,SSW,208,0.0,9.9,100,0.00,,,0.00,VWS V14.00,2013-01-14 11:28:00,
2013-01-14 06:34:00,43.8,43.8,29.84,SSW,208,0.0,9.9,100,0.00,,,0.00,VWS V14.00,2013-01-14 11:34:00,
2013-01-14 06:40:00,43.7,43.7,29.84,SSW,208,0.0,9.9,100,0.00,,,0.00,VWS V14.00,2013-01-14 11:40:00,
2013-01-14 06:46:00,43.6,43.6,29.86,North,350,0.0,9.9,100,0.00,,,0.00,VWS V14.00,2013-01-14 11:46:00,
2013-01-14 06:52:00,43.6,43.6,29.86,North,354,0.0,9.9,100,0.00,,,0.00,VWS V14.00,2013-01-14 11:52:00,
2013-01-14 06:58:00,43.6,43.6,29.86,North,354,0.0,9.9,100,0.00,,,0.00,VWS V14.00,2013-01-14 11:58:00,
2013-01-14 07:04:00,43.6,43.6,29.87,North,354,0.0,9.9,100,0.00,,,0.00,VWS V14.00,2013-01-14 12:04:00,
2013-01-14 07:10:00,43.8,43.8,29.89,North,354,0.0,9.9,100,0.00,,,0.00,VWS V14.00,2013-01-14 12:10:00,
2013-01-14 07:16:00,43.8,43.8,29.89,North,354,0.0,9.9,100,0.00,,,0.00,VWS V14.00,2013-01-14 12:16:00,
2013-01-14 07:22:00,43.6,43.6,29.90,North,354,0.0,9.9,100,0.00,,,0.00,VWS V14.00,2013-01-14 12:22:00,
2013-01-14 07:28:00,43.9,43.9,29.90,North,354,0.0,9.9,100,0.00,,,0.00,VWS V14.00,2013-01-14 12:28:00,
2013-01-14 07:34:00,43.8,43.8,29.90,North,11,6.6,9.9,100,0.00,,,0.00,VWS V14.00,2013-01-14 12:34:00,
2013-01-14 07:40:00,44.5,44.5,29.91,NNW,340,0.0,9.9,100,0.00,,,0.00,VWS V14.00,2013-01-14 12:40:00,
2013-01-14 07:46:00,45.0,45.0,29.91,NNW,336,0.0,9.9,100,0.00,,,0.00,VWS V14.00,2013-01-14 12:46:00,
2013-01-14 07:52:00,45.0,45.0,29.92,NNW,336,0.0,9.9,100,0.00,,,0.00,VWS V14.00,2013-01-14 12:52:00,
2013-01-14 07:58:00,45.0,45.0,29.92,NNW,336,0.0,9.9,100,0.00,,,0.00,VWS V14.00,2013-01-14 12:58:00,
2013-01-14 08:04:00,45.1,45.1,29.93,NNW,336,0.0,9.9,100,0.00,,,0.00,VWS V14.00,2013-01-14 13:04:00,
2013-01-14 08:10:00,45.0,45.0,29.93,NNW,336,0.0,9.9,100,0.00,,,0.00,VWS V14.00,2013-01-14 13:10:00,
2013-01-14 08:16:00,44.8,44.8,29.93,NNW,336,0.0,9.9,100,0.00,,,0.00,VWS V14.00,2013-01-14 13:16:00,
2013-01-14 08:22:00,44.8,44.8,29.93,NNW,336,0.0,9.9,100,0.00,,,0.00,VWS V14.00,2013-01-14 13:22:00,
2013-01-14 08:28:00,44.8,44.8,29.92,NW,315,0.0,9.9,100,0.00,,,0.00,VWS V14.00,2013-01-14 13:28:00,
2013-01-14 08:34:00,45.1,45.1,29.93,NW,315,0.0,9.9,100,0.00,,,0.00,VWS V14.00,2013-01-14 13:34:00,
2013-01-14 08:40:00,45.2,45.2,29.93,NW,315,0.0,9.9,100,0.00,,,0.00,VWS V14.00,2013-01-14 13:40:00,
2013-01-14 08:46:00,45.4,45.4,29.93,NW,315,0.0,9.9,100,0.00,,,0.00,VWS V14.00,2013-01-14 13:46:00,
2013-01-14 08:52:00,45.4,45.4,29.94,NW,315,0.0,9.9,100,0.00,,,0.00,VWS V14.00,2013-01-14 13:52:00,
2013-01-14 08:58:00,45.4,45.4,29.94,NW,315,0.0,9.9,100,0.00,,,0.00,VWS V14.00,2013-01-14 13:58:00,
2013-01-14 09:04:00,45.4,45.4,29.94,NW,315,0.0,9.9,100,0.00,,,0.00,VWS V14.00,2013-01-14 14:04:00,
2013-01-14 09:10:00,45.6,45.6,29.94,NW,315,0.0,9.9,100,0.00,,,0.00,VWS V14.00,2013-01-14 14:10:00,
2013-01-14 09:16:00,45.8,45.8,29.94,NW,315,0.0,9.9,100,0.00,,,0.00,VWS V14.00,2013-01-14 14:16:00,
2013-01-14 09:22:00,46.0,46.0,29.95,NW,315,0.0,9.9,100,0.00,,,0.00,VWS V14.00,2013-01-14 14:22:00,
2013-01-14 09:28:00,46.1,46.1,29.95,NW,315,0.0,9.9,100,0.00,,,0.00,VWS V14.00,2013-01-14 14:28:00,
2013-01-14 09:34:00,46.2,46.2,29.95,NNW,328,6.7,9.9,100,0.00,,,0.00,VWS V14.00,2013-01-14 14:34:00,
2013-01-14 09:40:00,46.4,46.4,29.96,WNW,298,4.2,9.9,100,0.00,,,0.00,VWS V14.00,2013-01-14 14:40:00,
2013-01-14 09:46:00,46.5,46.5,29.96,NW,314,5.1,9.9,100,0.00,,,0.00,VWS V14.00,2013-01-14 14:46:00,
2013-01-14 09:53:00,46.3,46.3,29.97,WNW,292,5.5,9.9,100,0.00,,,0.00,VWS V14.00,2013-01-14 14:53:00,
2013-01-14 09:59:00,46.1,46.1,29.97,NW,316,7.1,9.9,100,0.00,,,0.00,VWS V14.00,2013-01-14 14:59:00,
2013-01-14 10:05:00,46.0,46.0,29.97,NNW,328,5.9,9.9,100,0.00,,,0.00,VWS V14.00,2013-01-14 15:05:00,
2013-01-14 10:11:00,45.9,45.9,29.98,NW,304,5.8,9.9,100,0.00,,,0.00,VWS V14.00,2013-01-14 15:11:00,
2013-01-14 10:17:00,45.8,45.8,29.98,NW,314,6.0,9.9,100,0.00,,,0.00,VWS V14.00,2013-01-14 15:17:00,
2013-01-14 10:23:00,45.6,45.6,29.98,NW,314,6.3,10.2,100,0.00,,,0.00,VWS V14.00,2013-01-14 15:23:00,
2013-01-14 10:29:00,45.6,45.6,29.98,NW,322,8.4,10.2,100,0.00,,,0.00,VWS V14.00,2013-01-14 15:29:00,
2013-01-14 10:35:00,45.6,45.6,29.99,NW,325,8.2,10.2,100,0.00,,,0.00,VWS V14.00,2013-01-14 15:35:00,
2013-01-14 10:41:00,45.3,45.3,29.99,NW,326,9.0,10.5,100,0.00,,,0.00,VWS V14.00,2013-01-14 15:41:00,
2013-01-14 10:47:00,45.1,45.1,29.98,NNW,343,6.6,12.6,100,0.00,,,0.00,VWS V14.00,2013-01-14 15:47:00,
2013-01-14 10:53:00,45.1,45.1,29.99,NNW,329,7.8,12.6,100,0.00,,,0.00,VWS V14.00,2013-01-14 15:53:00,
2013-01-14 10:59:00,45.2,45.2,29.99,NNW,335,8.1,12.6,100,0.00,,,0.00,VWS V14.00,2013-01-14 15:59:00,
2013-01-14 11:05:00,45.0,44.9,29.99,NNW,333,8.2,12.6,100,0.00,,,0.00,VWS V14.00,2013-01-14 16:05:00,
2013-01-14 11:11:00,45.2,44.9,30.00,NNW,328,7.3,12.6,99,0.00,,,0.00,VWS V14.00,2013-01-14 16:11:00,
2013-01-14 11:17:00,45.2,44.6,30.00,NNW,339,6.0,12.6,98,0.00,,,0.00,VWS V14.00,2013-01-14 16:17:00,
2013-01-14 11:23:00,44.9,44.1,30.00,NNW,338,6.5,12.6,97,0.00,,,0.00,VWS V14.00,2013-01-14 16:23:00,
2013-01-14 11:29:00,44.6,43.7,30.00,NW,314,7.2,12.6,97,0.00,,,0.00,VWS V14.00,2013-01-14 16:29:00,
2013-01-14 11:35:00,44.3,43.2,30.00,NNW,328,10.3,12.6,96,0.00,,,0.00,VWS V14.00,2013-01-14 16:35:00,
2013-01-14 11:41:00,44.3,43.2,30.00,NNW,332,9.9,12.6,96,0.00,,,0.00,VWS V14.00,2013-01-14 16:41:00,
2013-01-14 11:47:00,44.3,42.9,30.01,NNW,328,8.1,12.6,95,0.00,,,0.00,VWS V14.00,2013-01-14 16:47:00,
2013-01-14 11:53:00,44.6,43.0,30.01,NNW,346,7.0,12.6,94,0.00,,,0.00,VWS V14.00,2013-01-14 16:53:00,
2013-01-14 11:59:00,44.8,42.9,30.01,NNW,346,8.8,12.6,93,0.00,,,0.00,VWS V14.00,2013-01-14 16:59:00,
2013-01-14 12:05:00,44.9,42.5,30.01,NW,322,7.7,12.6,91,0.00,,,0.00,VWS V14.00,2013-01-14 17:05:00,
2013-01-14 12:11:00,45.2,42.2,30.01,NW,325,7.8,12.6,89,0.00,,,0.00,VWS V14.00,2013-01-14 17:11:00,
2013-01-14 12:17:00,45.5,41.9,30.01,North,10,6.2,12.6,87,0.00,,,0.00,VWS V14.00,2013-01-14 17:17:00,
2013-01-14 12:23:00,45.8,41.5,30.01,North,357,7.8,12.6,85,0.00,,,0.00,VWS V14.00,2013-01-14 17:23:00,
2013-01-14 12:29:00,45.9,40.9,30.01,NW,308,8.8,12.6,83,0.00,,,0.00,VWS V14.00,2013-01-14 17:29:00,
2013-01-14 12:35:00,45.9,39.6,30.01,NW,318,4.2,16.1,79,0.00,,,0.00,VWS V14.00,2013-01-14 17:35:00,
2013-01-14 12:41:00,45.8,37.9,30.02,NNW,328,8.5,16.1,74,0.00,,,0.00,VWS V14.00,2013-01-14 17:41:00,
2013-01-14 12:47:00,45.7,36.3,30.02,NNW,332,6.5,16.1,70,0.00,,,0.00,VWS V14.00,2013-01-14 17:47:00,
2013-01-14 12:53:00,45.7,36.1,30.02,WNW,302,7.9,16.1,69,0.00,,,0.00,VWS V14.00,2013-01-14 17:53:00,
2013-01-14 12:59:00,45.7,36.0,30.03,NNW,336,6.8,16.1,69,0.00,,,0.00,VWS V14.00,2013-01-14 17:59:00,
2013-01-14 13:05:00,45.6,35.6,30.03,NW,309,11.2,16.1,68,0.00,,,0.00,VWS V14.00,2013-01-14 18:05:00,
2013-01-14 13:11:00,45.3,34.4,30.03,NNW,340,10.1,16.1,65,0.00,,,0.00,VWS V14.00,2013-01-14 18:11:00,
2013-01-14 13:17:00,45.1,33.2,30.02,NNW,335,8.5,16.1,63,0.00,,,0.00,VWS V14.00,2013-01-14 18:17:00,
2013-01-14 13:23:00,44.9,32.3,30.03,NW,321,9.5,16.1,61,0.00,,,0.00,VWS V14.00,2013-01-14 18:23:00,
2013-01-14 13:29:00,44.5,31.5,30.03,NNW,339,7.8,16.1,60,0.00,,,0.00,VWS V14.00,2013-01-14 18:29:00,
2013-01-14 13:35:00,44.4,30.9,30.03,NW,321,12.6,16.1,59,0.00,,,0.00,VWS V14.00,2013-01-14 18:35:00,
2013-01-14 13:41:00,44.3,30.3,30.03,North,356,7.8,16.1,58,0.00,,,0.00,VWS V14.00,2013-01-14 18:41:00,
2013-01-14 13:47:00,44.0,29.8,30.04,NNW,336,10.0,16.8,57,0.00,,,0.00,VWS V14.00,2013-01-14 18:47:00,
2013-01-14 13:54:00,43.8,29.2,30.05,North,352,5.8,16.8,56,0.00,,,0.00,VWS V14.00,2013-01-14 18:54:00,
2013-01-14 14:00:00,43.6,28.3,30.05,NNW,328,9.6,16.8,55,0.00,,,0.00,VWS V14.00,2013-01-14 19:00:00,
2013-01-14 14:06:00,43.5,27.6,30.05,NW,323,10.6,16.8,53,0.00,,,0.00,VWS V14.00,2013-01-14 19:06:00,
2013-01-14 14:12:00,43.5,27.4,30.06,NW,315,13.3,16.8,53,0.00,,,0.00,VWS V14.00,2013-01-14 19:12:00,
2013-01-14 14:18:00,43.2,26.7,30.06,NNW,330,7.1,16.8,52,0.00,,,0.00,VWS V14.00,2013-01-14 19:18:00,
2013-01-14 14:24:00,43.1,26.6,30.06,NNW,329,8.3,16.8,52,0.00,,,0.00,VWS V14.00,2013-01-14 19:24:00,
2013-01-14 14:30:00,43.2,27.1,30.07,NNW,329,5.2,16.8,53,0.00,,,0.00,VWS V14.00,2013-01-14 19:30:00,
2013-01-14 14:36:00,43.0,26.5,30.07,NW,312,10.3,16.8,52,0.00,,,0.00,VWS V14.00,2013-01-14 19:36:00,
2013-01-14 14:42:00,42.8,26.4,30.07,NNW,338,7.5,16.8,52,0.00,,,0.00,VWS V14.00,2013-01-14 19:42:00,
2013-01-14 14:48:00,42.8,26.8,30.08,NNW,336,5.8,16.8,53,0.00,,,0.00,VWS V14.00,2013-01-14 19:48:00,
2013-01-14 14:54:00,42.7,26.7,30.08,NW,314,6.5,16.8,53,0.00,,,0.00,VWS V14.00,2013-01-14 19:54:00,
2013-01-14 15:00:00,42.4,26.6,30.08,NW,322,0.0,16.8,53,0.00,,,0.00,VWS V14.00,2013-01-14 20:00:00,
2013-01-14 15:06:00,42.5,27.3,30.09,NNW,332,8.4,16.8,55,0.00,,,0.00,VWS V14.00,2013-01-14 20:06:00,
2013-01-14 15:12:00,42.4,27.3,30.09,NNW,332,6.3,16.8,55,0.00,,,0.00,VWS V14.00,2013-01-14 20:12:00,
2013-01-14 15:18:00,42.3,27.3,30.10,NW,319,0.0,16.8,55,0.00,,,0.00,VWS V14.00,2013-01-14 20:18:00,
2013-01-14 15:24:00,42.1,27.3,30.10,NW,325,7.0,16.8,55,0.00,,,0.00,VWS V14.00,2013-01-14 20:24:00,
2013-01-14 15:30:00,41.9,27.5,30.10,NNW,339,5.8,16.8,56,0.00,,,0.00,VWS V14.00,2013-01-14 20:30:00,
2013-01-14 15:36:00,41.9,27.7,30.10,NNW,330,7.8,16.8,57,0.00,,,0.00,VWS V14.00,2013-01-14 20:36:00,
2013-01-14 15:42:00,41.6,27.6,30.10,NW,323,4.3,16.8,57,0.00,,,0.00,VWS V14.00,2013-01-14 20:42:00,
2013-01-14 15:48:00,41.4,27.6,30.10,NNW,343,6.6,16.8,58,0.00,,,0.00,VWS V14.00,2013-01-14 20:48:00,
2013-01-14 15:54:00,41.2,27.6,30.10,NNW,335,7.5,16.8,58,0.00,,,0.00,VWS V14.00,2013-01-14 20:54:00,
2013-01-14 16:01:00,40.9,27.5,30.10,NNW,339,3.5,16.8,58,0.00,,,0.00,VWS V14.00,2013-01-14 21:01:00,
2013-01-14 16:07:00,40.6,27.5,30.10,NW,307,5.7,16.8,59,0.00,,,0.00,VWS V14.00,2013-01-14 21:07:00,
2013-01-14 16:13:00,40.3,27.4,30.10,NNW,336,8.8,16.8,60,0.00,,,0.00,VWS V14.00,2013-01-14 21:13:00,
2013-01-14 16:19:00,40.0,27.2,30.11,NW,314,6.1,16.8,60,0.00,,,0.00,VWS V14.00,2013-01-14 21:19:00,
2013-01-14 16:25:00,39.7,27.3,30.11,NW,321,0.0,16.8,61,0.00,,,0.00,VWS V14.00,2013-01-14 21:25:00,
2013-01-14 16:31:00,39.5,27.4,30.11,NNW,333,4.5,16.8,62,0.00,,,0.00,VWS V14.00,2013-01-14 21:31:00,
2013-01-14 16:37:00,39.0,27.5,30.11,NNW,346,0.0,16.8,63,0.00,,,0.00,VWS V14.00,2013-01-14 21:37:00,
2013-01-14 16:43:00,38.8,27.6,30.11,NW,319,0.0,16.8,64,0.00,,,0.00,VWS V14.00,2013-01-14 21:43:00,
2013-01-14 16:52:00,38.1,27.0,30.11,West,276,0.0,16.8,64,0.00,,,0.00,VWS V14.00,2013-01-14 21:52:00,
2013-01-14 16:58:00,37.7,26.6,30.10,West,276,0.0,16.8,64,0.00,,,0.00,VWS V14.00,2013-01-14 21:58:00,
2013-01-14 17:04:00,37.4,26.4,30.10,West,276,0.0,16.8,64,0.00,,,0.00,VWS V14.00,2013-01-14 22:04:00,
2013-01-14 17:10:00,37.2,26.3,30.10,West,276,0.0,16.8,64,0.00,,,0.00,VWS V14.00,2013-01-14 22:10:00,
2013-01-14 17:16:00,36.9,26.1,30.10,West,264,0.0,16.8,65,0.00,,,0.00,VWS V14.00,2013-01-14 22:16:00,
2013-01-14 17:26:00,36.4,25.9,30.10,West,264,0.0,16.8,65,0.00,,,0.00,VWS V14.00,2013-01-14 22:26:00,
2013-01-14 17:32:00,36.2,25.9,30.10,West,264,0.0,16.8,66,0.00,,,0.00,VWS V14.00,2013-01-14 22:32:00,
2013-01-14 17:38:00,35.9,26.0,30.10,West,264,0.0,16.8,67,0.00,,,0.00,VWS V14.00,2013-01-14 22:38:00,
2013-01-14 17:44:00,35.6,26.1,30.09,West,264,0.0,16.8,68,0.00,,,0.00,VWS V14.00,2013-01-14 22:44:00,
2013-01-14 17:50:00,35.4,26.3,30.10,West,264,0.0,16.8,69,0.00,,,0.00,VWS V14.00,2013-01-14 22:50:00,
2013-01-14 17:56:00,35.3,26.1,30.10,West,264,0.0,16.8,69,0.00,,,0.00,VWS V14.00,2013-01-14 22:56:00,
2013-01-14 18:02:00,35.0,25.9,30.11,West,264,0.0,16.8,69,0.00,,,0.00,VWS V14.00,2013-01-14 23:02:00,
2013-01-14 18:08:00,34.7,25.9,30.12,West,264,0.0,16.8,70,0.00,,,0.00,VWS V14.00,2013-01-14 23:08:00,
2013-01-14 18:14:00,34.6,26.1,30.12,West,264,0.0,16.8,71,0.00,,,0.00,VWS V14.00,2013-01-14 23:14:00,
2013-01-14 18:20:00,34.3,26.0,30.12,West,264,0.0,16.8,71,0.00,,,0.00,VWS V14.00,2013-01-14 23:20:00,
2013-01-14 18:26:00,34.0,25.8,30.13,West,264,0.0,16.8,72,0.00,,,0.00,VWS V14.00,2013-01-14 23:26:00,
2013-01-14 18:32:00,33.7,25.7,30.13,West,264,0.0,16.8,72,0.00,,,0.00,VWS V14.00,2013-01-14 23:32:00,
2013-01-14 18:38:00,33.6,25.8,30.15,West,264,0.0,16.8,73,0.00,,,0.00,VWS V14.00,2013-01-14 23:38:00,
2013-01-14 18:44:00,33.3,25.6,30.17,West,264,0.0,16.8,73,0.00,,,0.00,VWS V14.00,2013-01-14 23:44:00,
2013-01-14 18:50:00,33.2,25.9,30.17,West,264,0.0,16.8,74,0.00,,,0.00,VWS V14.00,2013-01-14 23:50:00,
2013-01-14 18:56:00,33.1,26.0,30.17,West,264,0.0,16.8,75,0.00,,,0.00,VWS V14.00,2013-01-14 23:56:00,
2013-01-14 19:02:00,32.9,25.9,30.17,West,264,0.0,16.8,75,0.00,,,0.00,VWS V14.00,2013-01-15 00:02:00,
2013-01-14 19:08:00,32.9,26.1,30.17,West,264,0.0,16.8,76,0.00,,,0.00,VWS V14.00,2013-01-15 00:08:00,
2013-01-14 19:14:00,32.7,26.0,30.16,West,264,0.0,16.8,76,0.00,,,0.00,VWS V14.00,2013-01-15 00:14:00,
2013-01-14 19:20:00,32.6,26.0,30.16,West,264,0.0,16.8,76,0.00,,,0.00,VWS V14.00,2013-01-15 00:20:00,
2013-01-14 19:26:00,32.6,26.4,30.16,West,264,0.0,16.8,78,0.00,,,0.00,VWS V14.00,2013-01-15 00:26:00,
2013-01-14 19:32:00,32.1,25.9,30.15,West,264,0.0,16.8,78,0.00,,,0.00,VWS V14.00,2013-01-15 00:32:00,
2013-01-14 19:38:00,32.3,26.4,30.15,SW,231,0.0,16.8,78,0.00,,,0.00,VWS V14.00,2013-01-15 00:38:00,
2013-01-14 19:44:00,32.1,26.3,30.16,SW,231,0.0,16.8,79,0.00,,,0.00,VWS V14.00,2013-01-15 00:44:00,
2013-01-14 19:50:00,31.9,26.3,30.19,WNW,290,0.0,16.8,80,0.00,,,0.00,VWS V14.00,2013-01-15 00:50:00,
2013-01-14 19:56:00,31.7,26.2,30.19,WNW,290,0.0,16.8,80,0.00,,,0.00,VWS V14.00,2013-01-15 00:56:00,
2013-01-14 20:02:00,31.8,26.5,30.18,WNW,290,0.0,16.8,80,0.00,,,0.00,VWS V14.00,2013-01-15 01:02:00,
2013-01-14 20:08:00,31.9,26.5,30.18,WNW,290,0.0,16.8,80,0.00,,,0.00,VWS V14.00,2013-01-15 01:08:00,
2013-01-14 20:14:00,31.7,26.4,30.18,NW,304,0.0,16.8,80,0.00,,,0.00,VWS V14.00,2013-01-15 01:14:00,
2013-01-14 20:20:00,31.6,26.2,30.19,NW,304,0.0,16.8,80,0.00,,,0.00,VWS V14.00,2013-01-15 01:20:00,
2013-01-14 20:26:00,31.8,26.5,30.19,NW,304,0.0,16.8,81,0.00,,,0.00,VWS V14.00,2013-01-15 01:26:00,
2013-01-14 20:32:00,31.8,26.7,30.19,NW,304,0.0,16.8,81,0.00,,,0.00,VWS V14.00,2013-01-15 01:32:00,
2013-01-14 20:38:00,31.6,26.5,30.18,NW,304,0.0,16.8,81,0.00,,,0.00,VWS V14.00,2013-01-15 01:38:00,
2013-01-14 20:44:00,32.0,27.0,30.18,NW,304,0.0,16.8,82,0.00,,,0.00,VWS V14.00,2013-01-15 01:44:00,
2013-01-14 20:50:00,31.9,27.0,30.19,NW,304,0.0,16.8,82,0.00,,,0.00,VWS V14.00,2013-01-15 01:50:00,
2013-01-14 20:56:00,31.8,26.9,30.18,NW,304,0.0,16.8,82,0.00,,,0.00,VWS V14.00,2013-01-15 01:56:00,
2013-01-14 21:02:00,31.6,26.8,30.17,NW,304,0.0,16.8,82,0.00,,,0.00,VWS V14.00,2013-01-15 02:02:00,
2013-01-14 21:08:00,31.5,26.8,30.17,NW,304,0.0,16.8,82,0.00,,,0.00,VWS V14.00,2013-01-15 02:08:00,
2013-01-14 21:14:00,31.5,26.9,30.17,NW,304,0.0,16.8,83,0.00,,,0.00,VWS V14.00,2013-01-15 02:14:00,
2013-01-14 21:21:00,31.4,26.9,30.17,WNW,292,0.0,16.8,83,0.00,,,0.00,VWS V14.00,2013-01-15 02:21:00,
2013-01-14 21:27:00,31.4,26.9,30.17,WNW,292,0.0,16.8,83,0.00,,,0.00,VWS V14.00,2013-01-15 02:27:00,
2013-01-14 21:33:00,31.5,26.9,30.17,WNW,292,0.0,16.8,83,0.00,,,0.00,VWS V14.00,2013-01-15 02:33:00,
2013-01-14 21:39:00,31.5,27.0,30.16,WNW,292,0.0,16.8,83,0.00,,,0.00,VWS V14.00,2013-01-15 02:39:00,
2013-01-14 21:45:00,31.5,26.8,30.15,WNW,292,0.0,16.8,83,0.00,,,0.00,VWS V14.00,2013-01-15 02:45:00,
2013-01-14 21:51:00,31.5,26.8,30.15,WNW,292,0.0,16.8,82,0.00,,,0.00,VWS V14.00,2013-01-15 02:51:00,
2013-01-14 21:57:00,31.5,26.8,30.16,WNW,292,0.0,16.8,82,0.00,,,0.00,VWS V14.00,2013-01-15 02:57:00,
2013-01-14 22:03:00,31.5,26.8,30.15,WNW,292,0.0,16.8,83,0.00,,,0.00,VWS V14.00,2013-01-15 03:03:00,
2013-01-14 22:09:00,31.4,27.0,30.15,WNW,292,0.0,16.8,84,0.00,,,0.00,VWS V14.00,2013-01-15 03:09:00,
2013-01-14 22:15:00,31.4,27.1,30.17,WNW,292,0.0,16.8,84,0.00,,,0.00,VWS V14.00,2013-01-15 03:15:00,
2013-01-14 22:21:00,31.5,27.2,30.16,WNW,292,0.0,16.8,84,0.00,,,0.00,VWS V14.00,2013-01-15 03:21:00,
2013-01-14 22:27:00,31.5,27.1,30.18,WNW,292,0.0,16.8,84,0.00,,,0.00,VWS V14.00,2013-01-15 03:27:00,
2013-01-14 22:33:00,31.4,26.9,30.17,WNW,292,0.0,16.8,83,0.00,,,0.00,VWS V14.00,2013-01-15 03:33:00,
2013-01-14 22:39:00,31.2,26.8,30.17,WNW,292,0.0,16.8,84,0.00,,,0.00,VWS V14.00,2013-01-15 03:39:00,
2013-01-14 22:45:00,31.3,27.0,30.16,WNW,292,0.0,16.8,84,0.00,,,0.00,VWS V14.00,2013-01-15 03:45:00,
2013-01-14 22:51:00,31.4,27.1,30.17,WNW,292,0.0,16.8,84,0.00,,,0.00,VWS V14.00,2013-01-15 03:51:00,
2013-01-14 22:57:00,31.4,27.1,30.16,WNW,292,0.0,16.8,84,0.00,,,0.00,VWS V14.00,2013-01-15 03:57:00,
2013-01-14 23:03:00,31.4,27.1,30.17,WNW,292,0.0,16.8,84,0.00,,,0.00,VWS V14.00,2013-01-15 04:03:00,
2013-01-14 23:09:00,31.3,27.1,30.18,WNW,292,0.0,16.8,84,0.00,,,0.00,VWS V14.00,2013-01-15 04:09:00,
2013-01-14 23:15:00,31.2,27.0,30.20,WNW,292,0.0,16.8,84,0.00,,,0.00,VWS V14.00,2013-01-15 04:15:00,
2013-01-14 23:21:00,31.1,26.9,30.20,WNW,292,0.0,16.8,84,0.00,,,0.00,VWS V14.00,2013-01-15 04:21:00,
2013-01-14 23:27:00,30.9,26.6,30.20,WNW,292,0.0,16.8,84,0.00,,,0.00,VWS V14.00,2013-01-15 04:27:00,
2013-01-14 23:33:00,31.0,26.8,30.20,WNW,292,0.0,16.8,84,0.00,,,0.00,VWS V14.00,2013-01-15 04:33:00,
2013-01-14 23:39:00,30.8,26.7,30.20,WNW,292,0.0,16.8,85,0.00,,,0.00,VWS V14.00,2013-01-15 04:39:00,
2013-01-14 23:45:00,31.0,27.0,30.20,WNW,292,0.0,16.8,85,0.00,,,0.00,VWS V14.00,2013-01-15 04:45:00,
2013-01-14 23:50:00,42.4,42.4,29.89,South,180,0.0,9.9,100,0.00,,,0.00,VWS V14.00,2013-01-15 04:50:00,
2013-01-14 23:51:00,31.0,27.1,30.21,WNW,292,0.0,0.0,85,0.00,,,0.00,VWS V14.00,2013-01-15 04:51:00,
2013-01-14 23:57:00,30.9,27.1,30.20,WNW,292,0.0,0.0,86,0.00,,,0.00,VWS V14.00,2013-01-15 04:57:00,